Miscellaneous Local Product
Issued by NWS North Platte, NE

Home | Current Version | Previous Version | Text Only | Print | Product List | Glossary On
Versions: 1 2 3 4 5 6 7 8 9 10 11 12 13 14 15 16 17 18 19 20 21 22 23 24 25 26 27 28 29 30 31 32 33 34 35 36 37 38 39 40 41 42 43 44 45 46 47 48 49 50
555
AXUS43 KLBF 020210
MISLBF


WESTERN AND NORTH CENTRAL NEBRASKA HOURLY WEATHER ROUNDUP
NATIONAL WEATHER SERVICE NORTH PLATTE NE
900 PM CDT SUN MAY 01 2016

NOTE: "FAIR" INDICATES FEW OR NO CLOUDS BELOW 12,000 FEET WITH NO
SIGNIFICANT WEATHER AND/OR OBSTRUCTIONS TO VISIBILITY.

NOTE: STATIONS NOT REPORTING VARIABLES SUCH AS SKY/WEATHER OR
PRESSURE ARE PROVIDED BY RAWS AND APRS NETWORKS AND ARE NOT UNDER
NATIONAL WEATHER SERVICE QUALITY CONTROL.

...OBSERVATIONS IN AND NEAR THE EASTERN PANHANDLE OF NEBRASKA...

CITY           SKY/WX    TMP DP  RH WIND       PRES   REMARKS
PINE RIDGE     CLEAR     46  31  55 NE5       30.22R
CHADRON        CLEAR     48  32  53 NE5       30.23R
ALLIANCE       PTCLDY    37  32  82 SW8       30.22R WCI  31
SIDNEY         CLOUDY    37  30  75 W9        30.26R WCI  30
CRESCENT LAKE    N/A     39  31  75 W6          N/A  WCI  35
BIG SPRINGS      N/A     49  37  64 NW3         N/A
$$

...OBSERVATIONS IN NORTHERN NEBRASKA AND FAR SOUTHERN SOUTH DAKOTA...

CITY           SKY/WX    TMP DP  RH WIND       PRES   REMARKS
WINNER         FAIR      48  35  60 N8        30.20R
VALENTINE      CLEAR     50  31  48 N3        30.21R
THEDFORD       CLEAR     47  33  57 N5        30.22R
AINSWORTH      CLEAR     44  34  69 N3        30.21R
O`NEILL        CLEAR     49  37  63 CALM      30.19R
ORD            CLOUDY    47  41  80 N5        30.18R
BROKEN BOW     PTCLDY    46  37  71 NE6       30.19R
VALENTINE NWR    N/A     51  32  48 N6G13       N/A
BUTTE            N/A     50  36  59 NE3         N/A
HALSEY           N/A     50  30  46 CALM        N/A
CHAMBERS         N/A     46  33  60 CALM        N/A
EWING            N/A     46  39  77 CALM        N/A
$$

...OBSERVATIONS IN SOUTHWEST NEBRASKA AND FAR NORTHEAST COLORADO...

CITY           SKY/WX    TMP DP  RH WIND       PRES   REMARKS
HOLYOKE        MOCLDY    43  32  65 W5        30.26R
IMPERIAL       MOCLDY    44  33  65 N8        30.24R
OGALLALA       CLEAR     40  32  73 NW3       30.24S
NORTH PLATTE   CLOUDY    46  35  65 N6        30.21R
MCCOOK         CLOUDY    49  36  61 CALM      30.20R
LEXINGTON      CLEAR     44  37  78 SE3       30.20R
PAXTON           N/A     50  35  56 N8          N/A
STAPLETON        N/A     46  35  65 CALM        N/A
GOTHENBURG       N/A     52  34  50 CALM        N/A
CALLAWAY         N/A     50  34  55 NE8         N/A
$$

...OBSERVATIONS IN CENTRAL LINCOLN COUNTY AREA...

CITY           SKY/WX    TMP DP  RH WIND       PRES   REMARKS
N.P. AIRPORT   CLOUDY    46  35  65 N6        30.21R
N.P. DOWNTOWN    N/A     48  36  64 NW3         N/A
N.P. HILLCREST   N/A     47  36  65 N9          N/A
$$

...SOME OBSERVATIONS FROM AROUND THE REGION...

CITY           SKY/WX    TMP DP  RH WIND       PRES   REMARKS
DENVER         CLOUDY    38  26  62 W5        30.27S WCI  34
LARAMIE        CLEAR     30  22  72 S8        30.25R WCI  22
CHEYENNE       PTCLDY    36  23  59 SW5       30.26S WCI  32
SCOTTSBLUFF    CLEAR     46  33  60 NE5       30.24R
RAPID CITY     CLEAR     45  32  60 N6        30.21S
BISMARCK       CLEAR     59  29  31 CALM      30.16F
PIERRE         CLEAR     49  34  56 NW8       30.17S
SIOUX FALLS    PTCLDY    48  36  63 N6        30.14R
OMAHA          CLOUDY    50  44  80 W3        30.15R
GRAND ISLAND   CLOUDY    47  41  80 NW6       30.19S
KANSAS CITY    CLOUDY    50  44  80 N10       30.09S
WICHITA        CLOUDY    52  41  66 N10       30.14R
OKLAHOMA CITY  CLOUDY    54  47  77 N10       30.12R
DALLAS         PTCLDY    68  49  50 NE13      30.01R
AMARILLO       CLOUDY    43  36  76 N13       30.23R
DODGE CITY     CLOUDY    44  38  79 N9        30.20R
HAYS           CLOUDY    46  34  61 N10       30.19S
GOODLAND       CLOUDY    40  32  73 N9        30.23R WCI  34
$$




USA.gov is the U.S. government's official web portal to all federal, state and local government web resources and services.